PLEIADES 1B

Last updated on Mon Oct 14 2024 00:02:24 GMT+0000 (Coordinated Universal Time)

1 39019U 12068A 24287.49632021 .00001825 00000+0 40183-3 0 9993 2 39019 98.1863 0.3196 0001166 96.6988 263.4345 14.58604258631682
UTC large
Height (km)
Speed (km/s)
/
Latitude / Longitude
Inclination (degrees)
Orbital Period (minutes)
Azimuth
Elevation
Range (km)
Doppler Factor

Next 0 passes for location: London (51.5072 / 0.1276)

Sorry there are no passes over London.